BXS2421 SCIE-SCCI

Flight info

Callsign BXS2421
Flight time 2h 41m
Altitude 35000
Route PANEX3N PANEX DCT VLD DCT MON DCT PAR DCT PNT DCT MUNER MUNER2E
Aircraft B738/M-SDE2E3FGHIRWXY/LB1

Departure

Time 2026-04-25 17:33
Airport Carriel Sur International Airport (SCIE)

Arrival

Time 2026-04-25 20:14
Airport President Carlos Ibáñez International Airport (SCCI)
Time Latitude Longitude Altitude Speed Heading
2026-04-25 17:16 -36.77630 -73.05978 30 ft 0 kts 179°
2026-04-25 17:23 -36.77626 -73.05978 30 ft 2 kts 179°
2026-04-25 17:23 -36.77612 -73.05978 29 ft 2 kts 182°
2026-04-25 17:24 -36.77596 -73.05977 30 ft 2 kts 186°
2026-04-25 17:24 -36.77579 -73.05974 29 ft 2 kts 194°
2026-04-25 17:24 -36.77564 -73.05966 28 ft 2 kts 223°
2026-04-25 17:24 -36.77557 -73.05948 27 ft 2 kts 275°
2026-04-25 17:25 -36.77558 -73.05940 27 ft 0 kts 279°
2026-04-25 17:27 -36.77557 -73.05966 28 ft 6 kts 270°
2026-04-25 17:27 -36.77557 -73.06020 30 ft 6 kts 272°
2026-04-25 17:27 -36.77543 -73.06069 30 ft 6 kts 303°
2026-04-25 17:27 -36.77529 -73.06099 30 ft 6 kts 298°
2026-04-25 17:28 -36.77503 -73.06161 30 ft 6 kts 298°
2026-04-25 17:28 -36.77473 -73.06191 29 ft 6 kts 351°
2026-04-25 17:28 -36.77434 -73.06176 29 ft 6 kts 21°
2026-04-25 17:28 -36.77398 -73.06154 29 ft 6 kts 26°
2026-04-25 17:29 -36.77352 -73.06126 29 ft 5 kts 26°
2026-04-25 17:29 -36.77351 -73.06125 30 ft 0 kts 26°
2026-04-25 17:29 -36.77315 -73.06104 29 ft 14 kts 21°
2026-04-25 17:29 -36.77218 -73.06053 29 ft 16 kts 26°
2026-04-25 17:30 -36.77108 -73.05986 28 ft 19 kts 26°
2026-04-25 17:30 -36.76982 -73.05909 28 ft 21 kts 26°
2026-04-25 17:30 -36.76840 -73.05828 27 ft 23 kts 24°
2026-04-25 17:30 -36.76684 -73.05739 26 ft 26 kts 24°
2026-04-25 17:31 -36.76517 -73.05641 29 ft 28 kts 26°
2026-04-25 17:31 -36.76399 -73.05583 27 ft 12 kts 352°
2026-04-25 17:31 -36.76348 -73.05657 25 ft 11 kts 305°
2026-04-25 17:31 -36.76310 -73.05740 26 ft 11 kts 274°
2026-04-25 17:32 -36.76357 -73.05804 30 ft 11 kts 191°
2026-04-25 17:32 -36.76485 -73.05862 27 ft 44 kts 207°
2026-04-25 17:32 -36.76987 -73.06164 27 ft 114 kts 205°
2026-04-25 17:32 -36.77867 -73.06708 114 ft 162 kts 207°
2026-04-25 17:33 -36.78871 -73.07284 988 ft 159 kts 201°
2026-04-25 17:33 -36.80008 -73.07589 1703 ft 171 kts 186°
2026-04-25 17:33 -36.81258 -73.07597 2207 ft 196 kts 180°
2026-04-25 17:33 -36.82733 -73.07526 2534 ft 217 kts 179°
2026-04-25 17:34 -36.84278 -73.07445 3098 ft 225 kts 179°
2026-04-25 17:34 -36.85871 -73.07364 3777 ft 234 kts 179°
2026-04-25 17:34 -36.87534 -73.07291 4421 ft 244 kts 179°
2026-04-25 17:34 -36.89208 -73.07213 5375 ft 239 kts 179°
2026-04-25 17:35 -36.90936 -73.07140 6089 ft 246 kts 180°
2026-04-25 17:35 -36.92673 -73.07070 6803 ft 252 kts 181°
2026-04-25 17:35 -36.94435 -73.07002 7632 ft 253 kts 181°
2026-04-25 17:35 -36.96219 -73.06937 8356 ft 259 kts 182°
2026-04-25 17:36 -36.98022 -73.06874 9171 ft 259 kts 182°
2026-04-25 17:36 -36.99830 -73.06806 10001 ft 262 kts 182°
2026-04-25 17:36 -37.01692 -73.06742 10515 ft 277 kts 182°
2026-04-25 17:36 -37.03715 -73.06678 10691 ft 302 kts 182°
2026-04-25 17:37 -37.05895 -73.06607 10858 ft 325 kts 182°
2026-04-25 17:37 -37.08239 -73.06528 11029 ft 347 kts 182°
2026-04-25 17:37 -37.10761 -73.06440 11185 ft 368 kts 182°
2026-04-25 17:37 -37.13366 -73.06346 11555 ft 379 kts 181°
2026-04-25 17:38 -37.16014 -73.06250 12149 ft 383 kts 181°
2026-04-25 17:38 -37.16924 -73.06216 12381 ft 384 kts 182°
2026-04-25 17:38 -37.21379 -73.06057 13435 ft 389 kts 182°
2026-04-25 17:38 -37.24099 -73.05959 14012 ft 394 kts 182°
2026-04-25 17:39 -37.26887 -73.05861 14591 ft 397 kts 182°
2026-04-25 17:39 -37.29651 -73.05763 15187 ft 399 kts 182°
2026-04-25 17:39 -37.32428 -73.05667 15762 ft 401 kts 182°
2026-04-25 17:39 -37.35224 -73.05625 16323 ft 402 kts 185°
2026-04-25 17:40 -37.38033 -73.05798 16875 ft 404 kts 187°
2026-04-25 17:40 -37.40837 -73.06069 17409 ft 406 kts 188°
2026-04-25 17:40 -37.43681 -73.06366 17995 ft 407 kts 188°
2026-04-25 17:40 -37.46505 -73.06651 18667 ft 405 kts 188°
2026-04-25 17:41 -37.49293 -73.06917 19184 ft 406 kts 188°
2026-04-25 17:41 -37.52151 -73.07178 19629 ft 409 kts 188°
2026-04-25 17:41 -37.55006 -73.07430 20061 ft 412 kts 188°
2026-04-25 17:41 -37.57992 -73.07689 20573 ft 413 kts 188°
2026-04-25 17:42 -37.60851 -73.07935 21053 ft 414 kts 188°
2026-04-25 17:42 -37.63733 -73.08184 21473 ft 416 kts 188°
2026-04-25 17:42 -37.66637 -73.08436 21865 ft 419 kts 188°
2026-04-25 17:42 -37.69553 -73.08689 22263 ft 421 kts 188°
2026-04-25 17:43 -37.72482 -73.08943 22655 ft 422 kts 188°
2026-04-25 17:43 -37.74465 -73.09115 22919 ft 424 kts 189°
2026-04-25 17:43 -37.77411 -73.09350 23252 ft 427 kts 187°
2026-04-25 17:43 -37.80434 -73.09434 23613 ft 430 kts 185°
2026-04-25 17:44 -37.83561 -73.09419 23987 ft 433 kts 185°
2026-04-25 17:44 -37.86579 -73.09371 24292 ft 435 kts 184°
2026-04-25 17:44 -37.89616 -73.09320 24609 ft 436 kts 184°
2026-04-25 17:44 -37.92649 -73.09279 24888 ft 437 kts 185°
2026-04-25 17:45 -37.95743 -73.09248 25151 ft 439 kts 185°
2026-04-25 17:45 -37.97760 -73.09233 25319 ft 440 kts 185°
2026-04-25 17:45 -38.01863 -73.09211 25663 ft 442 kts 185°
2026-04-25 17:45 -38.04941 -73.09198 25931 ft 443 kts 185°
2026-04-25 17:46 -38.08030 -73.09186 26204 ft 444 kts 185°
2026-04-25 17:46 -38.11120 -73.09176 26461 ft 444 kts 185°
2026-04-25 17:46 -38.14364 -73.09164 26819 ft 442 kts 185°
2026-04-25 17:46 -38.17443 -73.09152 27151 ft 441 kts 185°
2026-04-25 17:47 -38.20546 -73.09140 27503 ft 439 kts 185°
2026-04-25 17:47 -38.23597 -73.09128 27864 ft 438 kts 185°
2026-04-25 17:47 -38.26689 -73.09117 28219 ft 436 kts 185°
2026-04-25 17:47 -38.29684 -73.09106 28526 ft 435 kts 185°
2026-04-25 17:48 -38.35773 -73.09085 29115 ft 434 kts 185°
2026-04-25 17:48 -38.38796 -73.09075 29389 ft 433 kts 185°
2026-04-25 17:48 -38.41789 -73.09063 29729 ft 431 kts 185°
2026-04-25 17:49 -38.44797 -73.09051 30149 ft 428 kts 185°
2026-04-25 17:49 -38.47798 -73.09038 30509 ft 426 kts 186°
2026-04-25 17:49 -38.50844 -73.09027 30799 ft 425 kts 186°
2026-04-25 17:49 -38.53792 -73.09017 31039 ft 425 kts 186°
2026-04-25 17:50 -38.56835 -73.09008 31268 ft 425 kts 186°
2026-04-25 17:50 -38.59792 -73.08998 31503 ft 425 kts 186°
2026-04-25 17:50 -38.62741 -73.08987 31769 ft 424 kts 186°
2026-04-25 17:50 -38.65688 -73.08976 32040 ft 423 kts 186°
2026-04-25 17:51 -38.68634 -73.08965 32297 ft 423 kts 186°
2026-04-25 17:51 -38.71572 -73.08954 32552 ft 422 kts 186°
2026-04-25 17:51 -38.74515 -73.08943 32820 ft 421 kts 186°
2026-04-25 17:51 -38.77437 -73.08933 33045 ft 420 kts 186°
2026-04-25 17:52 -38.80393 -73.08922 33300 ft 420 kts 186°
2026-04-25 17:52 -38.86242 -73.08901 33770 ft 419 kts 187°
2026-04-25 17:52 -38.89145 -73.08890 33992 ft 418 kts 187°
2026-04-25 17:53 -38.92063 -73.08879 34211 ft 418 kts 187°
2026-04-25 17:53 -38.94018 -73.08872 34369 ft 418 kts 187°
2026-04-25 17:53 -38.96937 -73.08861 34630 ft 416 kts 187°
2026-04-25 17:53 -38.99893 -73.08849 34877 ft 414 kts 187°
2026-04-25 17:54 -39.02779 -73.08838 35068 ft 415 kts 187°
2026-04-25 17:54 -39.05666 -73.08829 35217 ft 415 kts 187°
2026-04-25 17:54 -39.08569 -73.08819 35299 ft 416 kts 187°
2026-04-25 17:55 -39.14491 -73.08798 35337 ft 416 kts 187°
2026-04-25 17:55 -39.20337 -73.08775 35324 ft 415 kts 187°
2026-04-25 17:56 -39.26119 -73.08752 35329 ft 414 kts 187°
2026-04-25 17:56 -39.31867 -73.08731 35333 ft 413 kts 187°
2026-04-25 17:57 -39.37771 -73.08710 35335 ft 413 kts 186°
2026-04-25 17:57 -39.43520 -73.08682 35333 ft 412 kts 187°
2026-04-25 17:58 -39.49335 -73.08665 35320 ft 412 kts 187°
2026-04-25 17:58 -39.55174 -73.08645 35316 ft 411 kts 187°
2026-04-25 17:59 -39.60896 -73.08623 35317 ft 411 kts 187°
2026-04-25 17:59 -39.66610 -73.08601 35319 ft 410 kts 187°
2026-04-25 18:00 -39.71364 -73.08602 35327 ft 410 kts 187°
2026-04-25 18:00 -39.77052 -73.08625 35322 ft 409 kts 187°
2026-04-25 18:01 -39.82747 -73.08649 35326 ft 409 kts 187°
2026-04-25 18:01 -39.88468 -73.08670 35327 ft 409 kts 187°
2026-04-25 18:02 -39.94225 -73.08690 35319 ft 408 kts 187°
2026-04-25 18:02 -39.99918 -73.08709 35311 ft 408 kts 187°
2026-04-25 18:03 -40.05928 -73.08729 35314 ft 408 kts 187°
2026-04-25 18:03 -40.11681 -73.08749 35304 ft 407 kts 187°
2026-04-25 18:04 -40.17336 -73.08767 35311 ft 406 kts 187°
2026-04-25 18:04 -40.23107 -73.08787 35309 ft 406 kts 187°
2026-04-25 18:05 -40.27835 -73.08803 35305 ft 406 kts 187°
2026-04-25 18:05 -40.34430 -73.08826 35304 ft 406 kts 187°
2026-04-25 18:06 -40.39940 -73.08845 35296 ft 406 kts 187°
2026-04-25 18:06 -40.45612 -73.08864 35301 ft 406 kts 187°
2026-04-25 18:07 -40.51324 -73.08883 35295 ft 405 kts 187°
2026-04-25 18:07 -40.56974 -73.08902 35294 ft 405 kts 187°
2026-04-25 18:08 -40.62594 -73.08921 35289 ft 405 kts 187°
2026-04-25 18:08 -40.68224 -73.08941 35294 ft 404 kts 187°
2026-04-25 18:09 -40.73012 -73.08957 35281 ft 404 kts 187°
2026-04-25 18:09 -40.79054 -73.08978 35292 ft 404 kts 187°
2026-04-25 18:10 -40.84671 -73.08997 35279 ft 403 kts 187°
2026-04-25 18:10 -40.90289 -73.09017 35288 ft 403 kts 187°
2026-04-25 18:11 -40.95938 -73.09036 35282 ft 403 kts 187°
2026-04-25 18:11 -41.01572 -73.09056 35282 ft 403 kts 187°
2026-04-25 18:12 -41.06567 -73.09073 35283 ft 402 kts 187°
2026-04-25 18:12 -41.12163 -73.09092 35268 ft 402 kts 187°
2026-04-25 18:13 -41.17784 -73.09112 35252 ft 401 kts 187°
2026-04-25 18:13 -41.23365 -73.09131 35247 ft 401 kts 187°
2026-04-25 18:14 -41.31818 -73.09161 35229 ft 400 kts 187°
2026-04-25 18:14 -41.37421 -73.09180 35216 ft 399 kts 187°
2026-04-25 18:15 -41.42952 -73.09212 35213 ft 396 kts 189°
2026-04-25 18:15 -41.47725 -73.09643 35223 ft 392 kts 191°
2026-04-25 18:16 -41.53149 -73.10267 35224 ft 391 kts 191°
2026-04-25 18:17 -41.61321 -73.11198 35222 ft 390 kts 191°
2026-04-25 18:17 -41.66802 -73.11805 35211 ft 389 kts 191°
2026-04-25 18:18 -41.72188 -73.12396 35209 ft 388 kts 191°
2026-04-25 18:18 -41.77578 -73.12989 35187 ft 387 kts 191°
2026-04-25 18:19 -41.82966 -73.13581 35179 ft 386 kts 191°
2026-04-25 18:19 -41.88320 -73.14171 35178 ft 385 kts 191°
2026-04-25 18:20 -41.93645 -73.14759 35173 ft 384 kts 191°
2026-04-25 18:20 -41.99237 -73.15377 35166 ft 383 kts 191°
2026-04-25 18:21 -42.04601 -73.15971 35155 ft 382 kts 191°
2026-04-25 18:21 -42.09898 -73.16559 35140 ft 381 kts 191°
2026-04-25 18:22 -42.14362 -73.17055 35136 ft 381 kts 191°
2026-04-25 18:22 -42.19849 -73.17666 35132 ft 381 kts 191°
2026-04-25 18:23 -42.25179 -73.18261 35140 ft 382 kts 191°
2026-04-25 18:23 -42.30474 -73.18852 35134 ft 382 kts 191°
2026-04-25 18:24 -42.35791 -73.19447 35134 ft 383 kts 191°
2026-04-25 18:24 -42.41103 -73.20042 35126 ft 384 kts 191°
2026-04-25 18:25 -42.46428 -73.20640 35115 ft 384 kts 191°
2026-04-25 18:25 -42.51750 -73.21238 35113 ft 385 kts 191°
2026-04-25 18:26 -42.57160 -73.21847 35100 ft 385 kts 191°
2026-04-25 18:26 -42.62690 -73.22471 35107 ft 385 kts 191°
2026-04-25 18:27 -42.68293 -73.23104 35093 ft 386 kts 191°
2026-04-25 18:27 -42.73609 -73.23706 35092 ft 386 kts 191°
2026-04-25 18:28 -42.78200 -73.24227 35099 ft 387 kts 191°
2026-04-25 18:28 -42.83592 -73.24840 35084 ft 389 kts 191°
2026-04-25 18:29 -42.91687 -73.25761 35076 ft 389 kts 191°
2026-04-25 18:30 -43.02529 -73.26998 35066 ft 390 kts 191°
2026-04-25 18:30 -43.07936 -73.27617 35063 ft 390 kts 191°
2026-04-25 18:31 -43.13352 -73.28239 35067 ft 391 kts 191°
2026-04-25 18:31 -43.18768 -73.28861 35058 ft 391 kts 191°
2026-04-25 18:32 -43.24189 -73.29485 35054 ft 391 kts 191°
2026-04-25 18:32 -43.29701 -73.30120 35053 ft 392 kts 191°
2026-04-25 18:33 -43.35134 -73.30748 35050 ft 392 kts 191°
2026-04-25 18:33 -43.40580 -73.31379 35045 ft 393 kts 191°
2026-04-25 18:34 -43.46033 -73.32011 35043 ft 393 kts 191°
2026-04-25 18:34 -43.51539 -73.32650 35045 ft 395 kts 191°
2026-04-25 18:35 -43.57022 -73.33289 35031 ft 396 kts 191°
2026-04-25 18:35 -43.62512 -73.33928 35039 ft 396 kts 191°
2026-04-25 18:36 -43.68009 -73.34569 35024 ft 396 kts 191°
2026-04-25 18:36 -43.73495 -73.35211 35025 ft 396 kts 191°
2026-04-25 18:37 -43.78987 -73.35854 35024 ft 395 kts 191°
2026-04-25 18:37 -43.84503 -73.36502 35017 ft 395 kts 191°
2026-04-25 18:38 -43.89987 -73.37148 35017 ft 396 kts 190°
2026-04-25 18:38 -43.95476 -73.37795 35013 ft 396 kts 190°
2026-04-25 18:39 -44.00981 -73.38445 35011 ft 397 kts 190°
2026-04-25 18:39 -44.06509 -73.39099 35008 ft 397 kts 190°
2026-04-25 18:40 -44.12032 -73.39754 35005 ft 398 kts 190°
2026-04-25 18:40 -44.17544 -73.40408 35003 ft 398 kts 190°
2026-04-25 18:41 -44.20338 -73.40741 35134 ft 398 kts 190°
2026-04-25 18:41 -44.23103 -73.41069 35361 ft 397 kts 190°
2026-04-25 18:41 -44.25848 -73.41395 35586 ft 396 kts 190°
2026-04-25 18:41 -44.28596 -73.41723 35779 ft 396 kts 190°
2026-04-25 18:42 -44.31350 -73.42052 35920 ft 397 kts 190°
2026-04-25 18:42 -44.32275 -73.42163 35960 ft 397 kts 190°
2026-04-25 18:42 -44.36863 -73.42713 36145 ft 400 kts 190°
2026-04-25 18:42 -44.39644 -73.43047 36252 ft 401 kts 189°
2026-04-25 18:43 -44.42427 -73.43380 36399 ft 401 kts 189°
2026-04-25 18:43 -44.45216 -73.43714 36552 ft 402 kts 189°
2026-04-25 18:43 -44.48002 -73.44048 36691 ft 402 kts 189°
2026-04-25 18:43 -44.50788 -73.44383 36831 ft 402 kts 189°
2026-04-25 18:44 -44.53605 -73.44721 36933 ft 402 kts 189°
2026-04-25 18:44 -44.56401 -73.45058 36979 ft 403 kts 189°
2026-04-25 18:44 -44.62035 -73.45738 36980 ft 405 kts 189°
2026-04-25 18:45 -44.67648 -73.46415 36978 ft 404 kts 189°
2026-04-25 18:45 -44.73267 -73.47095 36979 ft 404 kts 189°
2026-04-25 18:46 -44.78869 -73.47774 36974 ft 404 kts 189°
2026-04-25 18:46 -44.84469 -73.48455 36977 ft 404 kts 189°
2026-04-25 18:47 -44.90100 -73.49140 36975 ft 403 kts 189°
2026-04-25 18:47 -44.95728 -73.49827 36964 ft 403 kts 189°
2026-04-25 18:48 -45.01300 -73.50508 36961 ft 402 kts 189°
2026-04-25 18:48 -45.05978 -73.51081 36967 ft 401 kts 189°
2026-04-25 18:49 -45.11568 -73.51767 36966 ft 400 kts 189°
2026-04-25 18:49 -45.17134 -73.52181 36951 ft 404 kts 181°
2026-04-25 18:50 -45.22751 -73.51383 36971 ft 405 kts 180°
2026-04-25 18:50 -45.28341 -73.50536 36949 ft 404 kts 180°
2026-04-25 18:51 -45.33041 -73.49838 36948 ft 404 kts 180°
2026-04-25 18:51 -45.39544 -73.48888 36963 ft 404 kts 180°
2026-04-25 18:52 -45.45143 -73.48075 36950 ft 406 kts 180°
2026-04-25 18:52 -45.50775 -73.47256 36959 ft 407 kts 180°
2026-04-25 18:53 -45.56410 -73.46436 36939 ft 407 kts 180°
2026-04-25 18:53 -45.62048 -73.45613 36938 ft 407 kts 180°
2026-04-25 18:54 -45.70514 -73.44373 36948 ft 407 kts 179°
2026-04-25 18:55 -45.76152 -73.43545 36944 ft 407 kts 179°
2026-04-25 18:55 -45.81817 -73.42711 36959 ft 405 kts 179°
2026-04-25 18:56 -45.87433 -73.41883 36932 ft 406 kts 179°
2026-04-25 18:56 -45.93052 -73.41053 36938 ft 404 kts 179°
2026-04-25 18:57 -45.98644 -73.40227 36929 ft 404 kts 179°
2026-04-25 18:57 -46.04282 -73.39393 36919 ft 405 kts 179°
2026-04-25 18:58 -46.09894 -73.38559 36922 ft 406 kts 179°
2026-04-25 18:58 -46.18327 -73.37302 36929 ft 407 kts 179°
2026-04-25 18:59 -46.29636 -73.35613 36906 ft 409 kts 179°
2026-04-25 19:00 -46.38188 -73.34329 36897 ft 409 kts 179°
2026-04-25 19:01 -46.46729 -73.33044 36907 ft 410 kts 179°
2026-04-25 19:01 -46.52407 -73.32187 36926 ft 410 kts 179°
2026-04-25 19:02 -46.60934 -73.30896 36916 ft 409 kts 178°
2026-04-25 19:03 -46.67536 -73.29895 36909 ft 408 kts 179°
2026-04-25 19:03 -46.75074 -73.28747 36908 ft 407 kts 178°
2026-04-25 19:04 -46.83504 -73.27459 36915 ft 404 kts 179°
2026-04-25 19:05 -46.94912 -73.25714 36904 ft 404 kts 178°
2026-04-25 19:06 -46.99570 -73.24999 36917 ft 404 kts 178°
2026-04-25 19:06 -47.07968 -73.23706 36911 ft 404 kts 178°
2026-04-25 19:07 -47.16537 -73.22382 36921 ft 404 kts 178°
2026-04-25 19:08 -47.24941 -73.21081 36915 ft 407 kts 178°
2026-04-25 19:09 -47.35242 -73.19479 36938 ft 407 kts 178°
2026-04-25 19:10 -47.44647 -73.18011 36922 ft 407 kts 178°
2026-04-25 19:10 -47.50289 -73.17126 36945 ft 407 kts 178°
2026-04-25 19:11 -47.55934 -73.16241 36930 ft 409 kts 178°
2026-04-25 19:11 -47.61589 -73.15352 36956 ft 408 kts 178°
2026-04-25 19:12 -47.67242 -73.14461 36947 ft 408 kts 178°
2026-04-25 19:12 -47.72883 -73.13569 36947 ft 408 kts 178°
2026-04-25 19:13 -47.78569 -73.12669 36960 ft 408 kts 178°
2026-04-25 19:13 -47.84204 -73.11776 36951 ft 406 kts 178°
2026-04-25 19:14 -47.89803 -73.10885 36955 ft 404 kts 178°
2026-04-25 19:14 -47.95389 -73.09995 36952 ft 403 kts 178°
2026-04-25 19:15 -48.00970 -73.09104 36954 ft 404 kts 178°
2026-04-25 19:15 -48.06548 -73.08212 36927 ft 403 kts 178°
2026-04-25 19:16 -48.12075 -73.07325 36938 ft 402 kts 178°
2026-04-25 19:16 -48.17675 -73.06426 36953 ft 402 kts 178°
2026-04-25 19:17 -48.23273 -73.05525 36956 ft 402 kts 178°
2026-04-25 19:17 -48.28828 -73.04628 36947 ft 401 kts 178°
2026-04-25 19:18 -48.34369 -73.03731 36948 ft 400 kts 178°
2026-04-25 19:18 -48.39932 -73.02830 36955 ft 400 kts 178°
2026-04-25 19:19 -48.45457 -73.01933 36952 ft 401 kts 178°
2026-04-25 19:19 -48.51014 -73.01028 36965 ft 402 kts 178°
2026-04-25 19:20 -48.56588 -73.00119 36965 ft 403 kts 178°
2026-04-25 19:20 -48.62213 -72.99199 36965 ft 404 kts 178°
2026-04-25 19:21 -48.67846 -72.98275 36956 ft 404 kts 178°
2026-04-25 19:21 -48.76220 -72.96898 36971 ft 403 kts 178°
2026-04-25 19:22 -48.81841 -72.95972 36981 ft 403 kts 178°
2026-04-25 19:23 -48.90206 -72.94589 36971 ft 403 kts 178°
2026-04-25 19:23 -48.98606 -72.93196 36967 ft 403 kts 177°
2026-04-25 19:24 -49.04177 -72.92269 36985 ft 402 kts 177°
2026-04-25 19:25 -49.14613 -72.90527 36996 ft 403 kts 177°
2026-04-25 19:25 -49.20190 -72.89594 36997 ft 403 kts 177°
2026-04-25 19:26 -49.25770 -72.88658 36983 ft 404 kts 177°
2026-04-25 19:26 -49.31355 -72.87719 36996 ft 403 kts 177°
2026-04-25 19:27 -49.36022 -72.86932 36978 ft 403 kts 177°
2026-04-25 19:27 -49.42577 -72.85825 36981 ft 402 kts 177°
2026-04-25 19:28 -49.48129 -72.84884 36989 ft 402 kts 177°
2026-04-25 19:28 -49.53682 -72.83942 36985 ft 401 kts 177°
2026-04-25 19:29 -49.59232 -72.82998 36985 ft 401 kts 177°
2026-04-25 19:29 -49.64813 -72.82046 36987 ft 401 kts 177°
2026-04-25 19:30 -49.70569 -72.81063 36992 ft 400 kts 177°
2026-04-25 19:30 -49.76113 -72.80113 36980 ft 400 kts 176°
2026-04-25 19:31 -49.81694 -72.79155 36984 ft 401 kts 176°
2026-04-25 19:31 -49.87228 -72.78203 36996 ft 400 kts 176°
2026-04-25 19:32 -49.92775 -72.77246 36981 ft 400 kts 176°
2026-04-25 19:32 -49.96477 -72.76606 36984 ft 400 kts 176°
2026-04-25 19:33 -50.03734 -72.75348 36977 ft 399 kts 176°
2026-04-25 19:33 -50.09308 -72.74381 36980 ft 398 kts 176°
2026-04-25 19:34 -50.14853 -72.73415 36977 ft 397 kts 176°
2026-04-25 19:34 -50.20354 -72.72456 36967 ft 397 kts 176°
2026-04-25 19:35 -50.25835 -72.71497 36979 ft 397 kts 176°
2026-04-25 19:35 -50.30440 -72.70690 36986 ft 396 kts 176°
2026-04-25 19:36 -50.35916 -72.69728 36977 ft 397 kts 176°
2026-04-25 19:36 -50.41644 -72.68720 36988 ft 397 kts 176°
2026-04-25 19:37 -50.47166 -72.67745 36994 ft 398 kts 176°
2026-04-25 19:37 -50.52664 -72.66773 36982 ft 399 kts 176°
2026-04-25 19:38 -50.58253 -72.65782 36997 ft 400 kts 176°
2026-04-25 19:38 -50.63828 -72.64791 36989 ft 401 kts 175°
2026-04-25 19:39 -50.69346 -72.63807 36999 ft 402 kts 176°
2026-04-25 19:39 -50.74982 -72.62801 37005 ft 402 kts 175°
2026-04-25 19:40 -50.80547 -72.61805 36989 ft 403 kts 175°
2026-04-25 19:40 -50.86145 -72.60800 36986 ft 402 kts 175°
2026-04-25 19:41 -50.91765 -72.59788 36997 ft 400 kts 175°
2026-04-25 19:41 -50.95497 -72.59115 37000 ft 400 kts 175°
2026-04-25 19:42 -51.02832 -72.57790 36999 ft 398 kts 175°
2026-04-25 19:42 -51.08331 -72.56794 36998 ft 396 kts 175°
2026-04-25 19:43 -51.13833 -72.55794 36997 ft 395 kts 175°
2026-04-25 19:43 -51.19288 -72.54801 36996 ft 394 kts 175°
2026-04-25 19:44 -51.24768 -72.53801 36997 ft 394 kts 175°
2026-04-25 19:44 -51.30218 -72.52804 37004 ft 394 kts 175°
2026-04-25 19:45 -51.35664 -72.51806 37013 ft 395 kts 175°
2026-04-25 19:45 -51.40248 -72.50964 37007 ft 396 kts 175°
2026-04-25 19:46 -51.45731 -72.49954 37005 ft 396 kts 175°
2026-04-25 19:46 -51.51253 -72.48934 37009 ft 396 kts 175°
2026-04-25 19:47 -51.56766 -72.47913 36997 ft 396 kts 175°
2026-04-25 19:47 -51.62276 -72.46891 37010 ft 396 kts 175°
2026-04-25 19:48 -51.67763 -72.45751 36983 ft 398 kts 168°
2026-04-25 19:48 -51.70363 -72.44062 37012 ft 405 kts 155°
2026-04-25 19:48 -51.72682 -72.41415 37008 ft 413 kts 145°
2026-04-25 19:49 -51.75785 -72.35363 36984 ft 430 kts 126°
2026-04-25 19:49 -51.78460 -72.24654 36986 ft 437 kts 119°
2026-04-25 19:50 -51.81661 -72.10476 36576 ft 443 kts 119°
2026-04-25 19:50 -51.82740 -72.05818 36053 ft 440 kts 120°
2026-04-25 19:51 -51.83817 -72.01189 35420 ft 439 kts 120°
2026-04-25 19:51 -51.84906 -71.96527 34759 ft 438 kts 121°
2026-04-25 19:51 -51.85994 -71.91865 34188 ft 434 kts 121°
2026-04-25 19:51 -51.87061 -71.87292 33267 ft 436 kts 121°
2026-04-25 19:52 -51.88140 -71.82663 32581 ft 433 kts 121°
2026-04-25 19:52 -51.89231 -71.77957 31748 ft 432 kts 121°
2026-04-25 19:52 -51.89941 -71.74895 31228 ft 431 kts 121°
2026-04-25 19:52 -51.91084 -71.69953 30381 ft 430 kts 122°
2026-04-25 19:53 -51.92135 -71.65402 29466 ft 429 kts 121°
2026-04-25 19:53 -51.93180 -71.60867 28546 ft 427 kts 121°
2026-04-25 19:53 -51.94213 -71.56372 27651 ft 426 kts 120°
2026-04-25 19:53 -51.95244 -71.51874 26725 ft 426 kts 120°
2026-04-25 19:54 -51.96281 -71.47350 25793 ft 426 kts 119°
2026-04-25 19:54 -51.97299 -71.42881 25148 ft 421 kts 119°
2026-04-25 19:54 -51.98329 -71.38391 24467 ft 415 kts 121°
2026-04-25 19:54 -51.99233 -71.35591 23988 ft 400 kts 132°
2026-04-25 19:55 -52.01769 -71.31430 23044 ft 382 kts 148°
2026-04-25 19:55 -52.04028 -71.29260 22282 ft 372 kts 160°
2026-04-25 19:55 -52.06418 -71.27932 21642 ft 366 kts 166°
2026-04-25 19:55 -52.08926 -71.26811 20992 ft 376 kts 167°
2026-04-25 19:56 -52.11489 -71.25723 20293 ft 383 kts 167°
2026-04-25 19:56 -52.14047 -71.24636 19625 ft 378 kts 167°
2026-04-25 19:56 -52.16607 -71.23532 18944 ft 373 kts 167°
2026-04-25 19:56 -52.19100 -71.22441 18295 ft 369 kts 167°
2026-04-25 19:57 -52.21567 -71.21349 17584 ft 365 kts 167°
2026-04-25 19:57 -52.24029 -71.20252 16935 ft 360 kts 166°
2026-04-25 19:57 -52.26460 -71.19162 16300 ft 355 kts 166°
2026-04-25 19:57 -52.28873 -71.18079 15675 ft 351 kts 166°
2026-04-25 19:58 -52.31242 -71.17013 15052 ft 348 kts 166°
2026-04-25 19:58 -52.33566 -71.15965 14445 ft 345 kts 166°
2026-04-25 19:58 -52.35915 -71.14906 13836 ft 345 kts 166°
2026-04-25 19:58 -52.38222 -71.13865 13213 ft 346 kts 166°
2026-04-25 19:59 -52.40562 -71.12808 12992 ft 349 kts 166°
2026-04-25 19:59 -52.42888 -71.11754 12904 ft 341 kts 166°
2026-04-25 19:59 -52.45138 -71.10732 12891 ft 325 kts 166°
2026-04-25 19:59 -52.47286 -71.09754 12874 ft 308 kts 166°
2026-04-25 20:00 -52.49329 -71.08824 12880 ft 291 kts 166°
2026-04-25 20:00 -52.49981 -71.08528 12877 ft 286 kts 167°
2026-04-25 20:00 -52.53028 -71.07141 12879 ft 263 kts 167°
2026-04-25 20:00 -52.54780 -71.06343 12872 ft 249 kts 167°
2026-04-25 20:01 -52.57918 -71.04910 12864 ft 215 kts 167°
2026-04-25 20:01 -52.58852 -71.04484 12859 ft 206 kts 167°
2026-04-25 20:01 -52.60683 -71.03651 12512 ft 203 kts 167°
2026-04-25 20:02 -52.61586 -71.03240 12213 ft 204 kts 167°
2026-04-25 20:02 -52.62960 -71.02614 11757 ft 206 kts 167°
2026-04-25 20:02 -52.64403 -71.01956 10810 ft 227 kts 167°
2026-04-25 20:02 -52.65657 -71.01386 10136 ft 241 kts 167°
2026-04-25 20:03 -52.67776 -71.00417 9543 ft 240 kts 167°
2026-04-25 20:03 -52.68851 -70.99923 9294 ft 236 kts 167°
2026-04-25 20:03 -52.70409 -70.99206 8988 ft 228 kts 167°
2026-04-25 20:03 -52.71918 -70.98512 8767 ft 224 kts 168°
2026-04-25 20:04 -52.73423 -70.97822 8501 ft 227 kts 168°
2026-04-25 20:04 -52.74975 -70.97111 8242 ft 233 kts 168°
2026-04-25 20:04 -52.76555 -70.96385 7974 ft 238 kts 167°
2026-04-25 20:04 -52.78148 -70.95650 7691 ft 236 kts 167°
2026-04-25 20:05 -52.79717 -70.94927 7426 ft 234 kts 167°
2026-04-25 20:05 -52.81284 -70.94188 7153 ft 233 kts 163°
2026-04-25 20:05 -52.82586 -70.92830 6906 ft 239 kts 140°
2026-04-25 20:05 -52.83532 -70.90498 6638 ft 247 kts 119°
2026-04-25 20:06 -52.83842 -70.87657 6377 ft 258 kts 96°
2026-04-25 20:06 -52.83823 -70.84680 6096 ft 256 kts 98°
2026-04-25 20:06 -52.83950 -70.81743 5808 ft 251 kts 105°
2026-04-25 20:06 -52.84269 -70.78905 5554 ft 246 kts 111°
2026-04-25 20:07 -52.84761 -70.76228 5294 ft 240 kts 117°
2026-04-25 20:07 -52.85401 -70.73715 5046 ft 236 kts 123°
2026-04-25 20:07 -52.86185 -70.71300 4785 ft 232 kts 128°
2026-04-25 20:07 -52.87059 -70.69053 4524 ft 228 kts 134°
2026-04-25 20:08 -52.88064 -70.67055 4259 ft 223 kts 140°
2026-04-25 20:08 -52.89154 -70.65292 4053 ft 213 kts 144°
2026-04-25 20:08 -52.90284 -70.63720 3820 ft 203 kts 149°
2026-04-25 20:08 -52.91359 -70.62423 3714 ft 188 kts 153°
2026-04-25 20:09 -52.92436 -70.61331 3611 ft 173 kts 159°
2026-04-25 20:09 -52.93512 -70.60487 3551 ft 168 kts 162°
2026-04-25 20:09 -52.94586 -70.59721 3482 ft 166 kts 165°
2026-04-25 20:09 -52.95680 -70.58998 3422 ft 167 kts 164°
2026-04-25 20:10 -52.96747 -70.58276 3336 ft 168 kts 165°
2026-04-25 20:10 -52.97890 -70.58282 3148 ft 164 kts 208°
2026-04-25 20:10 -52.98579 -70.59732 3080 ft 164 kts 237°
2026-04-25 20:10 -52.99059 -70.61495 3040 ft 164 kts 240°
2026-04-25 20:11 -52.99460 -70.63208 3019 ft 157 kts 244°
2026-04-25 20:11 -52.99661 -70.64983 3016 ft 155 kts 252°
2026-04-25 20:11 -52.99801 -70.66784 3034 ft 156 kts 255°
2026-04-25 20:11 -52.99866 -70.68612 3026 ft 155 kts 257°
2026-04-25 20:12 -52.99900 -70.70316 3005 ft 143 kts 257°
2026-04-25 20:12 -52.99922 -70.71930 3047 ft 136 kts 257°
2026-04-25 20:12 -52.99944 -70.73534 3044 ft 140 kts 257°
2026-04-25 20:12 -52.99950 -70.74081 3043 ft 139 kts 257°
2026-04-25 20:13 -52.99990 -70.77041 1700 ft 171 kts 261°
2026-04-25 20:13 -52.99995 -70.79087 685 ft 183 kts 263°
2026-04-25 20:13 -53.00006 -70.81148 326 ft 159 kts 262°
2026-04-25 20:13 -53.00044 -70.82824 249 ft 139 kts 258°
2026-04-25 20:14 -53.00098 -70.84357 189 ft 123 kts 258°
2026-04-25 20:14 -53.00099 -70.85131 182 ft 14 kts 270°
2026-04-25 20:14 -53.00102 -70.85546 181 ft 81 kts 268°
2026-04-25 20:14 -53.00122 -70.86386 186 ft 47 kts 276°
2026-04-25 20:15 -53.00100 -70.86522 184 ft 1 kts 332°
2026-04-25 20:15 -53.00121 -70.86434 185 ft 9 kts 115°
2026-04-25 20:15 -53.00128 -70.86376 185 ft 0 kts 104°
2026-04-25 20:15 -53.00129 -70.86368 185 ft 3 kts 104°
2026-04-25 20:16 -53.00130 -70.86365 185 ft 0 kts 104°
2026-04-25 20:16 -53.00130 -70.86361 185 ft 1 kts 104°
2026-04-25 20:16 -53.00168 -70.86248 182 ft 16 kts 134°
2026-04-25 20:17 -53.00247 -70.86116 181 ft 16 kts 120°
2026-04-25 20:17 -53.00261 -70.85923 182 ft 20 kts 94°
2026-04-25 20:17 -53.00261 -70.85646 182 ft 28 kts 89°
2026-04-25 20:17 -53.00258 -70.85280 182 ft 35 kts 89°
2026-04-25 20:18 -53.00252 -70.84924 183 ft 6 kts 88°
2026-04-25 20:18 -53.00258 -70.84798 182 ft 14 kts 112°
2026-04-25 20:18 -53.00305 -70.84708 179 ft 17 kts 140°
2026-04-25 20:18 -53.00383 -70.84534 180 ft 9 kts 97°
2026-04-25 20:19 -53.00389 -70.84470 180 ft 7 kts 116°
2026-04-25 20:19 -53.00431 -70.84443 179 ft 0 kts 192°
2026-04-25 20:19 -53.00441 -70.84445 180 ft 0 kts 181°